Regional Weather Roundup
Issued by NWS Green Bay, WI

Home | Current Version | Previous Version | Text Only | Print | Product List | Glossary On
Versions: 1 2 3 4 5 6 7 8 9 10 11 12 13 14 15 16 17 18 19 20 21 22 23 24 25 26 27 28 29 30 31 32 33 34 35 36 37 38 39 40 41 42 43 44 45 46 47 48 49 50
000
ASUS43 KGRB 201859
RWRGRB

NORTH-CENTRAL AND NORTHEAST WISCONSIN REGIONAL WEATHER ROUNDUP
NATIONAL WEATHER SERVICE GREEN BAY WI
200 PM CDT MON OCT 20 2014

WIZ005-009-010>012-018-019-202000-
NORTH CENTRAL WISCONSIN

CITY           SKY/WX    TMP DP  RH WIND       PRES   REMARKS
IRONWOOD       CLOUDY    48  43  81 N9        29.94R
MANITOWISH WTR NOT AVBL
ARBOR VITAE    NOT AVBL
EAGLE RIVER    NOT AVBL
LAND O LAKES   NOT AVBL
RHINELANDER    CLOUDY    48  40  73 NW9       29.92R
PHILLIPS       NOT AVBL
ANTIGO         NOT AVBL
TOMAHAWK       NOT AVBL
MERRILL        NOT AVBL
$$

WIZ013-073-202000-
NORTHEAST WISCONSIN

CITY           SKY/WX    TMP DP  RH WIND       PRES   REMARKS
IRON MOUNTAIN  CLOUDY    48  42  80 NW7       29.87S
MARINETTE      CLOUDY    52  41  66 N13G20    29.87R
$$

WIZ017-030-035>037-045-202000-
CENTRAL WISCONSIN

CITY           SKY/WX    TMP DP  RH WIND       PRES   REMARKS
MEDFORD        NOT AVBL
WAUSAU         CLOUDY    51  41  68 N13G22    29.91R
MOSINEE        NOT AVBL
MARSHFIELD     CLOUDY    55  41  59 NW16      29.93R
WISC RAPIDS    CLOUDY    55  40  56 NW13      29.93R
STEVENS POINT  NOT AVBL
WAUPACA        NOT AVBL
SHAWANO        NOT AVBL
CLINTONVILLE   NOT AVBL
$$

WIZ038-039-048-051-202000-
FOX VALLEY

CITY           SKY/WX    TMP DP  RH WIND       PRES   REMARKS
NWS GREEN BAY  CLOUDY    54  42  64 NW13      29.88S
APPLETON       CLOUDY    54  41  62 N13G20    29.89S
OSHKOSH        CLOUDY    53  44  71 NW13      29.89R
FOND DU LAC    CLOUDY    53  44  71 NW13      29.89R
$$

WIZ022-050-052-202000-
EAST CENTRAL WISCONSIN

CITY           SKY/WX    TMP DP  RH WIND       PRES   REMARKS
STURGEON BAY   CLOUDY    50  41  71 NW17      29.87S
MANITOWOC      NOT AVBL
SHEBOYGAN      CLOUDY    53  44  71 NW12      29.87R
$$

LMZ563-521-522-541>543-202000-
LAKESHORE

STATION/POSITION TIME  TEMP    WIND        PRES    VSBY  WAVE
                       AIR SEA DIR/SP/G                  HT/PER
                 (UTC) (F)     (DEG/KT/KT) (MB)    (MI)  (FT/S)
SHEBOYGAN LKSHOR 1800   53 51  350/ 13/ 16 1011.5S
KEWAUNEE LKSHORE 1800   53     320/  8/ 13 1010.4R
TWO RIVERS CG    1800   53                 1011.1      6   1
NORTHPORT PIER   1800   49     330/ 17/ 23 1010.8S
N MID LAKE BUOY  1800   49 51  330/ 16/ 19 1010.3R         3/ 4
STURGEON BAY CG  1800   50 48  320/  4     1012.4      6   1
CHAMBERS ISLAND  1800   51     310/ 13/ 19 1011.5R
MENOMINEE LKSHOR 1800   51     310/ 13/ 17 1012.0R
$$


USA.gov is the U.S. government's official web portal to all federal, state and local government web resources and services.